Retour au catalogue

SL-16 DEB

ActifLEO
NORAD 39711·DEBRIS·🇷🇺 Russia

Lancé Dec 25, 1992 depuis Baikonur Cosmodrome

Loading…

Prochains Passages (prochaines 24 heures)

TLE

PériméSource: Space-Track

Époque: Sep 6, 2026, 22:26 UTC

1 39711U 92093KB  26249.93499314  .00000158  00000-0  12747-3 0  9997
2 39711  70.8338  92.8938 0092378 187.5416 172.4317 14.03068409633611

Suivez SL-16 DEB en temps réel avec AllMySat

Download on the App Store